Temp
14 15 16 16 15 17 15 17 18 16 16 17 15 15 16 15 14 13 14 14 14 13 15 15 16 16 15 14 14 13 13 12 12 10 10 11 12 12 13 14 15 15 15 15
14 15 15 15 14 16 16 16 16 15 15 16 15 15 17 15 17 17 18 17 16 16 13 12 14 15 15 14 13 13 13 12 11 11 11 11 12 12 13 13 13 13 14 14
14 17 14 15 14 15 14 15 15 17 16 14 13 13 13 15 15 16 15 16 15 16 17 14 10 12 12 12 13 13 12 12 11 10 10 11 10 11 11 11 12 13 13 13
14 15 15 14 15 15 15 14 15 16 16 15 14 15 14 15 17 15 15 15 15 16 14 13 10 10 11 13 12 12 12 11 11 10 10 11 10 9 10 11 11 12 12 12
16 13 14 15 15 14 15 13 14 15 14 13 13 14 16 15 16 16 18 16 16 14 13 13 10 12 13 11 11 11 11 10 10 9 10 10 9 10 11 10 10 10 10 10
15 14 14 15 14 15 12 13 12 10 12 13 14 15 21 15 17 18 17 17 16 13 12 10 12 12 11 11 10 9 9 9 9 9 9 10 9 9 10 9 8 9 8 8
14 14 14 14 14 14 15 15 14 13 11 15 11 14 21 16 15 17 18 19 16 13 12 10 8 7 8 8 7 7 7 7 7 8 8 9 9 9 10 10 9 8 8 7
15 15 13 13 16 14 13 15 14 13 12 14 11 12 16 15 14 14 14 14 13 12 11 10 8 7 7 7 6 6 6 6 6 7 8 8 9 9 9 9 9 9 9 10
13 14 14 13 15 16 13 14 16 16 3 10 14 14 15 13 14 13 13 12 11 11 10 9 7 7 7 6 6 6 6 6 6 7 7 8 8 8 8 8 8 8 8 9
15 14 13 13 15 14 15 14 14 11 12 10 14 14 18 19 17 16 14 14 12 11 10 8 6 6 6 7 6 6 6 6 5 7 6 8 8 7 7 7 8 7 7 7
14 14 12 13 12 12 13 13 13 12 11 11 11 17 13 17 16 16 15 14 13 11 10 9 6 6 6 6 6 5 5 6 5 6 6 7 7 6 6 7 7 7 7 7
13 13 12 12 12 11 12 13 12 12 11 9 10 18 15 15 15 13 13 15 14 12 10 7 5 5 5 5 5 5 5 5 5 6 6 7 8 6 5 5 6 6 6 5
13 12 8 12 12 11 11 11 13 11 10 11 13 18 12 13 15 14 13 13 11 11 10 7 4 4 4 4 5 5 5 5 5 5 6 6 7 6 5 5 5 5 4 4
14 12 12 14 14 11 11 10 11 14 11 15 13 18 18 17 17 14 14 12 11 10 8 7 5 4 3 4 4 4 4 5 5 5 5 5 5 5 5 5 5 4 4 4
14 12 11 13 13 12 12 12 12 14 15 15 17 16 18 17 15 17 16 13 12 11 8 7 6 5 3 3 3 4 4 4 4 4 4 4 5 5 4 4 3 3 2 3
12 12 11 11 12 12 12 12 11 13 14 15 16 16 19 18 15 14 14 16 16 13 10 10 8 5 4 4 4 3 3 3 3 3 3 4 4 3 3 2 2 2 2 2
9 11 10 12 12 11 11 12 12 13 13 15 14 16 17 16 14 15 13 12 13 12 13 11 9 7 7 6 6 4 3 2 2 2 3 3 2 2 2 2 1 1 0 1
8 8 9 12 12 12 13 15 13 14 14 14 15 16 16 16 14 13 14 13 12 11 11 11 10 9 9 9 7 5 4 3 2 1 1 1 2 1 0 -0 -0 -1 -1 -1
9 9 10 11 12 13 12 11 11 11 13 14 14 14 15 15 13 13 14 11 13 12 10 9 10 10 10 9 7 5 3 2 1 0 0 0 1 0 -0 -1 -1 -2 -2 -2
8 9 10 10 11 12 13 12 10 11 13 13 13 14 14 12 11 14 11 10 9 7 5 5 7 7 7 7 5 4 2 0 -0 -0 -0 0 0 0 -0 -1 -1 -2 -2 -3
7 8 9 11 11 11 10 8 9 12 12 5 5 11 10 10 12 10 7 8 5 4 4 4 4 4 4 4 3 1 0 -1 0 0 0 -0 -0 0 -0 -1 -2 -2 -3 -2
8 9 10 10 10 11 8 9 11 11 7 7 8 9 8 7 7 6 5 4 3 2 2 2 2 1 1 2 2 -0 -1 0 0 0 -0 -1 -1 -1 -2 -2 -3 -3 -2 -4
8 9 9 9 10 9 7 10 8 6 5 7 7 8 7 6 6 6 4 3 1 -0 -0 -1 -0 -1 -1 1 2 -0 -0 -0 -0 -0 -1 -2 -2 -2 -2 -2 -3 -4 -4 -4
5 6 6 7 6 6 7 7 6 7 6 6 6 6 5 5 5 5 2 1 -0 -3 -3 -2 -2 -3 -3 -0 0 1 -1 -0 -1 -2 -2 -2 -2 -3 -3 -3 -3 -3 -4 -4
3 4 4 5 7 8 7 4 4 4 4 5 5 4 4 4 5 3 -0 -2 -3 -4 -3 -2 -4 -5 -5 -3 -2 -2 -1 -1 -1 -2 -3 -3 -3 -3 -3 -3 -3 -3 -3 -2
2 5 6 7 6 7 7 3 2 3 3 3 4 4 1 1 2 -1 -2 -3 -3 -4 -4 -5 -6 -6 -6 -5 -4 -2 -1 -0 -1 -2 -3 -3 -3 -3 -3 -3 -4 -3 -3 -3
Height
828 836 843 834 839 837 844 842 842 841 834 835 836 832 820 816 818 815 809 806 802 800 789 795 799 804 808 811 814 818 822 825 828 831 835 838 840 844 847 850 853 856 858 861
835 840 827 831 838 837 841 844 846 841 836 838 833 828 813 813 803 795 792 791 790 788 786 787 789 794 797 800 805 810 813 818 821 825 829 833 837 840 843 846 848 851 855 857
833 823 827 829 839 842 845 846 845 840 836 839 840 832 818 800 795 789 786 779 780 776 774 776 781 784 790 792 796 800 805 810 816 820 825 830 835 837 839 841 844 847 851 854
827 820 824 831 834 835 843 836 836 838 842 850 839 840 816 799 787 787 777 774 768 766 768 767 772 777 779 780 788 793 799 804 809 814 819 823 825 827 831 836 841 844 848 851
813 822 823 826 823 828 831 835 839 840 848 851 845 846 804 797 790 780 763 761 759 760 761 762 765 766 769 777 779 785 792 797 802 808 813 818 822 825 829 834 838 841 845 849
811 811 814 812 818 819 832 836 845 857 856 857 833 834 765 795 778 767 758 753 751 756 758 758 760 762 764 769 774 779 785 790 795 801 806 811 816 820 825 829 833 837 841 845
814 812 809 808 821 824 822 832 850 857 870 838 839 833 758 775 769 762 754 742 748 752 755 756 757 759 761 765 769 774 779 783 787 793 799 805 809 815 819 822 827 832 837 841
814 814 808 802 799 813 827 821 839 852 857 836 843 824 779 764 760 759 752 751 753 753 753 753 753 754 758 763 766 770 774 778 782 788 794 799 803 809 813 817 821 826 829 833
813 810 798 799 794 795 820 823 806 821 899 859 814 793 767 762 757 754 749 749 753 752 751 750 749 750 753 756 759 764 770 775 779 784 790 794 799 803 806 812 818 822 826 830
794 804 801 799 796 798 799 804 822 838 842 859 805 796 768 751 748 742 745 743 744 745 747 747 748 748 750 753 757 762 766 771 774 781 786 790 795 800 804 809 813 818 823 828
790 797 804 801 802 801 805 806 810 813 823 828 833 772 755 745 742 743 740 740 739 741 739 741 744 746 748 752 755 758 761 765 769 775 781 786 791 796 801 805 809 813 818 823
785 792 800 798 792 795 794 788 794 805 821 832 824 751 742 742 741 743 743 739 738 739 741 744 744 745 747 747 750 753 756 759 763 768 774 780 786 791 796 801 805 810 814 820
781 790 824 796 794 796 797 792 784 796 807 802 797 743 747 742 741 740 742 741 742 741 740 742 743 742 742 743 744 748 752 755 760 764 768 772 776 781 788 794 800 806 812 818
767 780 782 770 770 778 789 787 783 777 801 761 780 732 735 738 737 741 739 738 739 738 742 743 741 738 739 739 739 741 745 749 754 759 764 766 770 776 782 788 793 798 805 811
764 772 780 761 766 770 772 771 771 771 757 770 735 751 708 735 739 736 732 734 733 732 736 736 734 732 733 736 735 736 739 742 746 752 756 758 763 769 774 780 786 793 799 806
761 763 769 764 761 760 764 769 772 760 750 753 741 743 707 721 727 732 730 722 721 724 725 723 721 724 726 728 727 728 730 734 739 745 749 753 756 761 767 773 779 786 791 797
772 760 761 748 748 759 763 749 741 747 743 736 745 709 713 718 720 721 723 721 719 718 714 714 715 714 714 714 715 718 722 729 733 737 741 746 752 757 762 767 773 778 783 788
773 776 768 738 742 738 721 713 723 725 722 722 719 705 701 706 713 719 706 712 710 711 709 706 704 703 702 702 706 711 716 720 725 731 737 741 746 752 760 765 769 776 781 786
760 763 757 744 730 723 722 714 721 724 711 712 715 703 697 701 715 705 699 705 700 700 700 700 699 699 698 698 700 705 710 714 719 722 727 734 741 747 754 761 765 772 779 784
747 745 746 739 732 725 707 704 709 711 710 696 702 697 693 706 718 693 699 699 698 699 699 698 696 696 695 695 696 699 704 711 715 719 724 730 735 742 749 754 760 767 773 782
748 741 732 723 717 714 709 715 714 714 709 711 708 693 701 706 696 696 700 699 698 698 697 695 694 693 693 694 695 700 701 705 712 719 724 730 735 741 748 753 758 764 772 781
738 732 723 724 718 712 709 713 706 702 709 708 703 697 700 699 698 697 699 700 698 696 697 695 693 693 692 694 699 701 704 707 713 718 722 728 735 740 748 753 759 764 771 778
737 727 723 722 708 704 711 704 696 699 714 705 703 701 702 702 701 698 698 700 700 699 701 697 698 696 696 696 700 704 707 712 716 720 724 727 733 739 745 751 758 763 770 778
729 725 729 723 716 715 712 707 704 702 704 707 706 702 703 702 700 699 701 700 699 701 703 703 704 703 703 703 704 706 709 714 720 725 728 732 735 741 747 752 756 759 767 774
731 728 729 721 709 705 708 712 716 706 706 701 700 701 699 697 698 700 702 704 703 702 705 706 709 710 710 708 709 713 717 718 721 726 729 734 738 743 748 752 755 759 764 769
727 719 718 709 710 712 706 714 714 707 696 700 700 697 700 701 702 704 705 708 708 706 707 711 714 715 714 714 716 717 718 721 724 727 730 734 739 744 749 753 757 761 766 770
Wind_Speed
3 5 6 12 5 3 5 2 3 4 3 3 7 11 12 10 6 11 13 13 14 15 23 24 32 33 32 31 31 30 28 26 24 23 24 23 27 26 25 26 26 27 29 30
5 5 10 6 6 4 4 3 5 6 3 4 8 14 16 8 12 15 17 17 17 14 9 15 28 33 38 38 36 34 32 30 29 28 29 24 28 26 26 25 27 30 30 30
8 5 6 7 5 6 4 6 5 7 3 3 6 7 8 7 11 15 13 18 12 18 18 12 19 32 34 39 41 40 37 34 31 30 29 25 26 23 24 26 27 27 27 27
6 4 6 5 5 8 5 8 5 4 3 4 1 6 8 7 13 7 14 13 19 19 14 10 13 21 34 44 42 41 39 36 34 34 33 35 32 24 28 31 29 29 28 27
8 10 7 5 8 8 7 5 6 3 3 4 2 4 7 0 8 11 17 16 15 13 12 12 12 26 35 33 40 41 39 37 37 36 36 37 33 31 28 30 30 29 28 27
3 0 6 8 3 5 9 6 6 4 2 4 9 7 9 6 7 6 7 11 10 6 8 8 15 20 24 28 34 37 40 37 38 38 38 38 37 33 30 33 32 31 29 28
2 4 3 4 6 4 2 6 1 3 0 9 2 5 18 6 9 8 11 15 4 5 5 5 7 10 16 24 29 31 33 36 39 39 39 38 39 36 36 38 37 35 33 32
8 8 11 7 9 9 9 8 6 8 4 4 3 8 7 9 9 9 12 10 3 4 5 7 6 10 16 22 26 28 28 31 37 38 38 38 39 39 38 39 41 40 39 37
6 6 2 2 2 9 6 8 3 1 3 2 6 9 9 9 13 10 14 6 6 9 8 8 7 13 19 23 28 30 27 28 34 38 36 38 37 38 39 38 39 40 38 38
5 4 0 1 2 1 6 6 3 1 4 4 6 6 9 5 9 10 9 11 9 8 8 6 6 12 16 20 23 26 25 29 33 37 38 38 38 38 37 37 39 40 39 38
5 4 1 3 6 10 4 5 2 4 5 5 2 8 8 10 9 9 8 7 7 7 8 7 5 10 13 16 20 25 26 31 33 36 37 37 37 36 35 36 38 40 40 40
8 4 7 10 3 3 3 6 8 5 5 3 2 16 4 6 6 4 7 5 2 3 3 4 5 10 14 20 23 27 30 35 37 38 38 36 36 36 35 36 37 38 39 40
8 4 1 7 2 2 5 5 7 3 3 10 7 16 2 4 5 4 5 4 5 5 4 4 4 6 13 19 22 26 30 33 35 37 39 38 39 40 39 38 37 37 38 40
8 5 9 13 5 5 6 7 9 13 4 18 11 32 17 3 5 8 8 7 7 7 7 6 6 7 15 20 24 28 31 34 35 37 37 37 38 39 39 38 38 38 39 43
10 12 8 20 10 3 4 6 14 17 25 12 31 18 31 12 10 12 12 7 7 9 8 9 9 9 13 18 23 27 30 36 38 37 37 38 40 40 39 38 38 37 39 43
5 9 12 21 21 20 19 9 10 21 21 20 29 26 29 16 7 6 12 18 17 10 10 11 12 8 12 20 24 27 30 34 37 37 38 38 41 41 40 38 38 38 41 44
6 7 8 21 21 13 11 25 27 21 18 21 19 32 19 18 15 12 12 11 13 12 13 11 10 10 18 27 29 30 28 29 35 37 38 39 38 38 38 39 38 39 43 47
9 10 4 11 9 15 15 18 22 25 27 25 24 29 27 20 8 11 19 11 14 10 11 12 10 15 25 28 27 27 27 33 34 32 31 35 37 35 35 35 37 36 38 43
19 10 7 4 6 9 10 8 8 11 24 21 24 29 29 23 1 20 16 11 17 13 10 10 18 20 21 21 23 25 27 29 29 30 31 34 36 33 33 32 32 33 34 35
17 18 12 9 11 12 9 8 5 7 14 11 20 25 27 3 6 18 3 1 4 4 5 9 12 15 15 15 18 24 24 24 23 25 28 32 33 34 35 33 32 33 32 29
4 5 15 15 13 6 6 1 4 7 6 3 4 12 5 7 10 3 2 5 2 4 7 7 6 7 8 9 16 18 20 21 22 23 24 26 28 31 31 30 29 30 28 28
4 4 7 6 6 9 8 4 8 6 0 3 3 4 6 7 7 7 4 6 7 6 6 4 2 4 4 9 14 14 15 16 17 19 21 23 25 26 26 27 26 26 28 27
8 8 5 6 3 3 5 6 2 6 3 4 3 4 4 4 5 4 2 2 4 5 4 3 5 8 8 9 10 14 13 15 19 21 23 24 24 24 26 27 27 25 24 25
4 3 3 3 4 5 8 8 5 1 5 5 5 4 3 4 4 3 3 3 3 5 7 6 9 12 12 8 8 12 17 19 21 21 22 22 23 24 24 24 25 26 26 23
4 1 3 4 7 10 11 5 7 7 8 5 2 2 4 4 3 2 2 3 3 6 8 9 10 12 13 14 16 14 16 19 20 21 21 20 19 20 21 20 23 24 25 28
4 5 3 5 5 5 7 3 5 7 6 6 4 0 3 3 1 3 5 4 6 9 13 14 13 15 16 17 16 14 14 15 20 21 21 21 22 21 21 21 16 16 16 18
Wind_Direction
11 101 196 214 183 139 134 161 218 245 242 198 234 258 262 264 258 259 254 253 246 240 249 239 236 228 222 221 218 216 214 212 209 204 196 201 205 202 204 202 202 205 203 198
50 209 224 120 161 149 157 157 254 285 225 188 274 266 269 242 250 239 247 248 242 244 242 222 225 224 220 219 216 214 214 212 210 211 203 199 199 197 203 208 212 198 196 194
172 201 123 145 158 164 197 179 217 227 339 249 331 279 260 277 246 252 248 246 246 235 242 229 206 216 217 217 218 216 214 212 210 207 201 199 199 194 197 194 192 190 195 199
220 198 147 171 190 155 228 207 166 164 66 257 91 287 282 251 252 237 254 240 243 241 239 234 202 207 216 222 220 219 216 213 210 208 204 203 199 190 202 200 192 190 189 194
228 172 172 176 196 159 224 125 158 129 161 351 195 276 246 178 269 254 252 248 245 238 232 235 209 217 228 220 217 216 214 213 211 207 208 207 206 205 200 197 191 190 190 191
236 112 164 193 116 151 149 79 55 57 91 281 180 175 253 193 221 254 258 253 243 242 239 239 246 233 223 223 218 213 210 206 210 208 208 209 209 203 192 193 192 190 188 188
136 215 194 145 92 51 148 114 290 321 49 237 9 192 258 277 230 228 253 268 286 208 227 233 212 212 208 205 204 202 200 198 204 207 208 207 214 210 205 200 196 191 189 189
189 258 167 189 191 167 201 166 172 205 197 255 11 236 251 240 267 252 261 263 266 184 230 246 228 215 208 206 203 198 198 200 198 202 206 209 213 214 210 204 202 199 197 195
167 265 256 144 140 152 194 213 205 93 96 26 224 277 286 259 275 263 257 270 239 241 248 248 228 214 209 207 205 200 198 202 199 205 205 210 213 211 210 209 207 203 199 197
216 276 159 305 113 23 168 167 83 357 192 246 265 265 234 276 252 260 257 254 241 221 233 230 238 222 219 218 213 204 202 204 200 205 206 209 214 214 215 212 208 205 203 198
165 169 229 132 212 173 144 204 152 145 161 190 273 261 213 221 238 263 273 280 286 247 218 219 221 224 216 215 213 207 202 200 199 202 207 210 214 215 215 214 211 208 205 199
205 181 239 216 227 222 297 230 167 152 216 237 186 266 171 219 257 227 270 277 268 244 234 241 218 205 204 206 207 207 204 203 205 205 206 209 214 214 214 214 213 211 206 201
182 197 332 321 351 350 233 204 198 106 70 214 191 259 352 336 299 359 286 279 298 287 245 245 238 219 216 213 209 209 207 206 207 206 206 207 210 211 213 214 213 211 208 202
163 165 193 232 204 136 194 200 195 198 187 243 222 253 249 36 346 323 290 249 254 244 243 247 238 229 226 220 211 211 211 209 209 208 205 205 208 210 214 213 213 210 207 202
181 217 226 245 244 180 233 210 198 210 232 226 250 242 258 247 241 260 274 289 248 236 222 228 239 232 223 220 217 215 214 210 209 205 204 206 212 212 212 211 211 208 205 203
211 235 206 245 239 235 238 224 229 225 229 237 251 258 259 255 234 228 241 250 265 271 251 244 238 217 217 220 219 215 214 210 207 203 207 207 211 209 210 209 207 206 203 200
316 228 191 239 235 230 236 229 230 233 228 220 235 243 255 263 239 244 250 234 241 250 256 256 240 225 225 227 224 215 210 205 205 204 206 207 207 205 207 208 206 204 201 200
238 257 276 251 239 228 234 243 224 225 234 227 241 255 252 251 271 235 243 256 254 244 251 257 251 240 241 242 231 223 213 207 202 202 204 203 205 202 204 203 204 202 197 197
212 219 243 256 267 273 303 245 177 188 245 236 234 250 259 261 308 272 264 227 250 256 254 260 268 271 268 253 236 216 205 201 196 197 199 201 202 197 199 197 196 194 193 192
214 207 215 226 239 255 271 275 206 132 248 216 215 238 248 197 234 262 127 239 265 287 289 293 290 275 262 248 221 199 191 190 194 196 199 204 202 202 203 198 195 193 193 187
176 219 228 231 238 228 226 190 307 171 244 223 205 239 210 192 223 212 260 264 230 283 299 307 291 264 262 224 195 188 183 187 199 202 202 201 200 201 203 196 190 188 183 192
214 242 215 203 242 268 185 111 168 217 203 259 260 234 216 221 253 277 254 267 308 329 329 336 96 91 127 171 182 175 180 188 187 189 186 187 190 188 187 187 183 185 187 187
251 201 233 207 230 248 209 244 233 126 322 294 266 312 283 262 236 270 291 339 345 2 350 18 111 100 98 144 173 157 159 166 167 169 168 170 174 178 181 180 174 171 181 183
236 204 211 20 332 345 322 304 278 285 203 227 249 271 273 265 306 298 351 19 49 34 24 57 101 92 81 99 127 143 149 157 158 156 158 162 166 166 174 179 182 176 182 184
199 6 252 267 275 314 312 318 307 312 263 256 247 285 314 326 335 351 42 37 61 73 70 90 85 80 77 98 109 130 146 151 148 150 153 154 161 166 167 177 182 187 196 200
194 185 190 256 268 219 262 187 238 275 332 299 264 89 60 16 79 96 69 46 79 81 92 86 91 96 98 102 102 119 141 155 152 150 155 162 164 167 172 171 167 196 208 203